Location: Bauerbach
(50.4985°N, 10.3912°E)
Time: 19:25:30
(UTC+00:00)

Cosmos 2154 Rocket - Pass Details

Date: 13 January 2026
Orbit: 965 x 997 km, 82.9° (Epoch: 14 February)

Event Time Altitude Azimuth Distance (km) Brightness Sun altitude
Rises 05:26:50 0° 191° (S) 3,697 7.1 -16.4°
Reaches altitude 10° 05:29:21 10° 192° (SSW) 2,749 6.4 -16.1°
Maximum altitude 05:35:40 81° 280° (W) 1,005 4.0 -15.1°
Drops below altitude 10° 05:42:00 10° 8° (N) 2,747 6.3 -14.1°
Sets 05:44:31 0° 10° (N) 3,694 7.0 -13.7°
